Location: Foglia
(42.3333°N, 12.4667°E)
Time: 00:47:17
(UTC+00:00)

Daily predictions for brighter satellites

Satellite Brightness Start Highest point End
(mag) Time Altitude Azimuth Time Altitude Azimuth Time Altitude Azimuth
SL-16 R/B 4.5 00:12:19 23° NNE 00:12:19 23° NNE 00:14:45 10° N
USA 267 4.3 00:50:58 10° NE 00:54:57 38° ENE 00:54:57 38° ENE
Cosmos 2227 Rocket 4.3 01:23:54 10° NNW 01:25:13 17° NNW 01:25:13 17° NNW
Lacrosse 5 3.7 01:32:48 27° ENE 01:32:48 27° ENE 01:35:17 10° NE
USA 234 4.1 01:25:31 10° E 01:31:39 45° NNE 01:37:44 10° NW
ADEOS II 3.4 01:35:30 10° NNE 01:38:27 35° NNE 01:38:27 35° NNE
IDEFIX/ARIANE 42P 3.5 01:48:44 10° NNE 01:53:41 44° E 01:53:41 44° E
Cosmos 2369 4.2 01:54:43 58° ENE 01:54:43 58° ENE 01:59:44 10° NNE
ARIANE 5 R/B 3.1 01:57:45 10° NNE 02:01:51 55° NE 02:01:51 55° NE
CZ-2D R/B 4.1 02:00:21 10° N 02:02:04 17° NNW 02:02:04 17° NNW
ATLAS 5 CENTAUR R/B 4.0 02:07:56 15° NNW 02:07:56 15° NNW 02:09:41 10° N
Resurs 1-4 Rocket 4.2 02:14:39 10° NNW 02:15:58 15° NNW 02:15:58 15° NNW
Cosmos 2360 4.1 02:18:34 84° SE 02:18:39 85° ESE 02:24:25 10° NNE
Cosmos 2082 3.6 02:15:08 10° NNW 02:26:40 - SSE 02:20:23 76° NNW
USA 305 3.9 02:22:42 43° NE 02:22:42 43° NE 02:25:42 10° NE
Meteor 1-26 Rocket 4.0 02:24:04 77° SSE 02:24:25 82° E 02:29:51 10° NNE
USA 306 3.8 02:26:37 46° NNE 02:26:37 46° NNE 02:29:45 10° NE
X-37B 3.2 02:29:08 21° ENE 02:29:08 21° ENE 02:30:26 10° ENE
CZ-2D R/B 4.2 02:25:39 10° NNE 02:28:45 49° N 02:28:45 49° N
SJ 16-02 3.7 02:27:21 10° N 02:30:53 23° ENE 02:34:24 10° ESE
Cosmos 389 Rocket 4.1 02:32:19 33° NE 02:32:19 33° NE 02:34:31 10° NNE
Cosmos 1697 Rocket 2.8 02:32:33 57° NW 02:32:33 57° NW 02:37:55 10° NNE
Meteor 1-25 Rocket 4.1 02:26:59 10° NNW 02:32:46 72° W 02:33:00 70° WSW
H-2A R/B 3.1 02:31:15 10° SE 02:35:23 46° ENE 02:39:39 10° N
ASTEX 1 3.3 02:31:03 10° N 02:36:04 86° WNW 02:36:22 79° SSW
Cosmos 1980 Rocket 2.1 02:35:19 60° S 02:36:25 84° ESE 02:42:07 10° NNE
NOSS 3-3 (A) 4.5 02:35:08 32° S 02:37:23 49° ESE 02:43:25 10° NE
NOSS 3-3 (C) 4.5 02:35:18 32° S 02:37:31 49° ESE 02:43:29 10° NE
Iridium 2 4.4 02:39:48 49° NNE 02:39:48 49° NNE 02:42:40 10° N
ERS-2 4.4 02:35:53 10° SE 02:38:55 25° ENE 02:41:59 10° NNE
CZ-2C R/B 3.8 02:35:20 10° NNE 02:40:06 37° E 02:44:53 10° SSE
USA 267 3.8 02:34:06 10° NE 02:40:19 47° NNW 02:42:17 37° WNW
COSMOS 2441 4.5 02:37:16 10° NNE 02:42:13 74° ESE 02:43:42 45° S
Cosmos 2322 Rocket 4.4 02:38:03 10° SSE 02:42:14 22° E 02:46:26 10° NE
Cosmos 2263 Rocket 3.4 02:41:41 10° NNW 02:47:03 42° ENE 02:52:24 10° SE
SL-8 R/B 4.4 02:46:01 35° NW 02:47:34 49° NNE 02:52:12 10° E
Meteor 1-14 Rocket 4.1 02:43:53 10° N 02:49:32 90° ENE 02:55:04 10° S
SL-16 R/B 3.9 02:44:48 10° SSE 02:49:41 31° ESE 02:54:35 10° NE
USA 307 3.4 02:52:24 45° NNW 02:52:25 45° NNW 02:56:32 10° NE
Cosmos 1812 3.7 02:52:18 24° SSE 02:54:13 46° E 02:57:55 10° NNE
USA 308 3.5 02:55:23 43° NW 02:55:32 43° NNW 02:59:37 10° NE
Cosmos 1821 Rocket 4.3 02:50:07 10° NNW 02:56:00 43° W 02:56:29 42° WSW
Spot 4 Rocket 4.2 02:53:58 10° N 02:58:58 52° WNW 02:59:44 47° WSW
SL-4 R/B 4.4 02:57:22 14° S 02:59:50 21° SE 03:03:23 10° E
Cosmos 972 4.3 02:59:28 45° SW 03:00:58 74° WNW 03:05:53 10° NNE
Cosmos 1500 3.6 02:58:31 10° N 03:02:21 64° E 03:06:07 10° SSE
Landsat 5 3.5 02:58:52 10° SSE 03:03:23 86° WSW 03:07:55 10° NNW
Meteor 2-6 Rocket 4.3 02:59:47 14° S 03:04:44 79° E 03:10:32 10° NNE
Meteor 1-5 Rocket 4.3 03:03:39 10° N 03:08:58 72° E 03:14:21 10° SSE
Cosmos 1782 3.8 03:10:11 31° NW 03:10:11 31° NW 03:13:04 10° N
ERBS 2.9 03:09:57 42° SSE 03:10:32 47° SE 03:13:48 10° NE
Cosmos 1934 Rocket 4.0 03:05:13 10° NNW 03:11:07 55° W 03:17:00 10° SSW
Cosmos 1777 Rocket 4.4 03:07:05 10° NW 03:11:54 38° WSW 03:12:06 38° WSW
IRIDIUM 104 4.5 03:07:56 10° N 03:13:11 76° E 03:18:23 10° S
Cosmos 1238 Rocket 4.0 03:06:57 10° NNW 03:13:27 60° W 03:19:25 10° S
Lacrosse 5 2.8 03:12:00 29° WNW 03:13:30 35° NNW 03:18:10 10° NE
ADEOS Rocket 3.6 03:06:58 10° SSE 03:13:51 65° ENE 03:20:03 10° N
CZ-4B R/B 3.4 03:11:30 10° SE 03:14:16 29° ENE 03:17:05 10° N
USA 234 3.2 03:08:02 10° SE 03:14:30 64° SW 03:20:59 10° NW
Cosmos 1515 Rocket 4.4 03:15:07 32° WNW 03:15:07 32° WNW 03:18:54 10° N
CZ-2C R/B 3.3 03:15:09 10° N 03:18:32 37° WNW 03:18:32 37° WNW
ADEOS II 4.0 03:17:22 10° NNW 03:19:23 13° NW 03:19:23 13° NW
Cosmos 546 4.5 03:20:30 37° WNW 03:21:54 76° SSW 03:25:43 10° SE
IRIDIUM 114 4.3 03:17:05 10° N 03:22:20 89° W 03:27:33 10° S
USA 276 4.0 03:21:38 19° NNW 03:22:33 22° N 03:25:07 10° NE
Cosmos 44 3.4 03:24:49 34° WSW 03:26:19 48° NW 03:30:49 10° NNE
USA 32 4.5 03:21:16 10° N 03:26:30 65° E 03:31:42 10° SSE
Cosmos 1707 Rocket 4.0 03:23:58 10° S 03:28:12 62° E 03:32:30 10° NNE
ADEOS 4.1 03:24:01 10° NNE 03:29:11 59° ESE 03:34:19 10° S
MSX 4.3 03:24:04 10° N 03:29:27 41° WNW 03:32:39 22° SW
Cosmos 921 Rocket 3.0 03:27:48 28° SW 03:29:45 57° WNW 03:33:54 10° N
Cosmos 2278 4.4 03:28:10 26° W 03:30:26 35° WNW 03:35:41 10° N
IRIDIUM 103 4.2 03:26:15 10° N 03:31:28 74° W 03:36:39 10° S
Cosmos 2228 Rocket 3.5 03:31:12 27° SW 03:32:59 40° WNW 03:37:09 10° N
IDEFIX/ARIANE 42P 3.7 03:28:52 10° NNW 03:33:05 25° WNW 03:34:28 22° W
Cosmos 1605 Rocket 4.1 03:27:41 10° NNW 03:33:57 59° W 03:40:12 10° S
Meteor 1-11 Rocket 3.9 03:28:20 10° N 03:34:10 77° E 03:39:49 10° SSE
CZ-3B R/B 4.1 03:32:05 12° NW 03:35:10 26° N 03:44:04 10° ENE
SAR-Lupe-4 4.5 03:32:22 10° SSE 03:35:51 51° ENE 03:39:22 10° N
ARIANE 5 R/B 4.1 03:38:23 10° NNW 03:41:21 16° WNW 03:42:10 15° WNW
CZ-4C R/B 4.2 03:42:40 24° W 03:42:40 24° W 03:45:20 10° NW
Cosmos 1937 Rocket 4.2 03:39:56 10° NNW 03:45:01 57° ENE 03:50:03 10° SE
Meteor 1-27 Rocket 3.9 03:40:18 10° S 03:46:14 87° E 03:52:12 10° N
SAR-Lupe-1 4.3 03:44:36 10° SSE 03:48:09 71° ENE 03:51:43 10° N
ALOS 2.7 03:43:58 10° NNE 03:48:37 66° E 03:53:15 10° S
Cosmos 1733 Rocket 3.9 03:44:34 10° N 03:48:52 55° E 03:53:06 10° SSE
IRIDIUM 106 4.5 03:44:42 10° NNW 03:49:44 50° W 03:54:44 10° SSW
Cosmos 1536 2.9 03:48:32 10° N 03:52:38 82° E 03:56:41 10° S
Cosmos 1869 Rocket 4.0 03:49:37 10° NNW 03:53:40 39° W 03:57:40 10° SSW
Cosmos 841 Rocket 4.2 03:50:04 10° S 03:55:09 57° ESE 04:00:19 10° NNE
Meteor 1-4 Rocket 2.9 03:52:32 13° SW 03:55:18 38° WNW 03:58:36 10° N
Cosmos 1484 Rocket 2.8 03:53:24 10° NNE 03:57:24 88° ESE 04:01:24 10° SSW
Cosmos 1862 Rocket 3.9 03:57:38 10° S 04:02:00 70° E 04:06:22 10° NNE
Cosmos 1689 Rocket 3.0 03:59:46 10° SSE 04:02:39 52° ENE 04:05:34 10° N
X-37B 1.0 04:01:25 13° WNW 04:04:09 59° N 04:07:18 10° E
Cosmos 1727 Rocket 4.2 03:59:22 10° SSW 04:05:30 50° WNW 04:11:40 10° N
Cosmos 1763 Rocket 3.6 04:00:33 10° SSW 04:05:47 60° WNW 04:11:04 10° NNE
Cosmos 1570 Rocket 4.4 04:01:10 10° S 04:06:26 72° ESE 04:11:46 10° NNE
Meteor 1-31 Rocket 2.7 04:04:20 10° N 04:08:10 85° WNW 04:12:00 10° SSW
Cosmos 2100 Rocket 4.0 04:02:13 10° N 04:08:37 78° W 04:14:58 10° S
SJ 16-02 2.0 04:05:34 10° NW 04:09:31 33° W 04:13:27 10° SSW
Cosmos 2360 Rocket 2.8 04:04:50 10° S 04:10:24 62° ESE 04:16:00 10° NNE
Cosmos 1437 Rocket 4.0 04:07:02 10° SSE 04:10:37 44° E 04:14:17 10° NNE
Cosmos 1802 Rocket 4.1 04:04:45 10° N 04:10:58 83° E 04:17:14 10° S
H-2A R/B 3.6 04:08:50 10° SW 04:11:37 17° W 04:14:26 10° NW
ERS-2 3.4 04:09:35 10° SSW 04:12:25 21° W 04:15:16 10° NW
CZ-2C R/B 3.5 04:13:51 10° N 04:18:08 28° WNW 04:22:29 10° SW
Meteor PRIRODA 4.2 04:16:43 10° NNE 04:20:22 63° E 04:23:58 10° S
NOSS 3-4 (A) 4.2 04:13:54 10° NNW 04:20:58 73° NE 04:28:47 10° SE
NOSS 3-4 (C) 4.2 04:14:00 10° NNW 04:21:04 73° NE 04:28:53 10° SE
Cosmos 1980 Rocket 3.8 04:17:27 10° W 04:21:09 17° NW 04:24:51 10° N
Gbstr 26 Del rocket 4.4 04:13:44 10° WNW 04:21:44 85° SW 04:28:35 10° SE
FALCON 9 DEB 3.1 04:18:34 10° SW 04:22:00 87° SE 04:25:26 10° NE
METEOR-M 4.1 04:17:21 10° N 04:22:42 73° WNW 04:28:01 10° SSW
Cosmos 2322 Rocket 2.4 04:20:16 10° SW 04:25:49 55° WNW 04:31:25 10° NNE
FENGYUN 3A 3.8 04:20:43 10° N 04:26:01 58° WNW 04:31:17 10° SSW
SL-8 R/B 3.8 04:25:31 10° WNW 04:30:13 59° SSW 04:34:54 10° SE
Cosmos 2123 Rocket 4.1 04:24:03 10° S 04:30:17 88° E 04:36:37 10° N
Cosmos 1459 Rocket 4.0 04:24:21 10° NNW 04:30:18 57° W 04:36:11 10° SSW
SJ-12 3.9 04:26:16 10° N 04:30:25 78° WNW 04:34:32 10° SSW
Cosmos 2237 4.3 04:24:56 10° SSW 04:30:39 84° WNW 04:36:24 10° NNE
Cosmos 2263 Rocket 3.0 04:25:58 10° NW 04:30:46 29° WSW 04:35:34 10° SSW
